FENGYUN 1C DEB, 33716

Orbit data source: Space-Track

FENGYUN 1C DEB, 33716 is space debris in SSO originally from a launch on Mon, 10 May 1999 UTC launched from the Taiyaun Space Center, China (TSC). Fengyun 1C debris stems from the Chinese weather satellite Fengyun-1C, which was intentionally destroyed by a Chinese anti-satellite missile in 2007. This event dramatically increased the amount of space debris, with thousands of trackable fragments posing hazards to satellites and human spaceflight. The Fengyun 1C debris cloud has become a focal point in discussions about space sustainability and the need for international regulations to prevent the creation of new debris.

Loading next visibility...
Identifier
33716, 1999-025DHD
Orbit
SSO
Country
Flag of CNCN / PRC
Related business
Manufacturer
Unknown
Mission
Spacecraft
Bus & Motor
Unknown
Mass
Unknown
Launch date (UTC)
1999-05-10 (27 years ago)
Launch vehicle
Unknown
Launch site
Taiyaun Space Center, China (TSC)
Object type
Payload
Rocket body
Debris
Shape & HBR
Unknown shape, 0.1 m
Radar Cross Section
Small (<0.1 m²)

Expand to show TLE details & history
Last TLE update: 1 day ago

TLE from 1 day ago
0 FENGYUN 1C DEB
1 33716U 99025DHD 26169.54866669  .00000189  00000-0  82503-4 0  9999
2 33716  98.8851 104.7624 0093444 166.8614 193.5035 14.32834529678470
Epoch: 2026-06-18T13:10Z
TLE epoch observation values (Epoch: 2026-06-18T13:10:04.802Z)
Latitude
Longitude
0.45198°
Altitude
850.305 km
Speed
7.394 km/s
True Right ascension
06h 59m 02s
True Declination
0° 00' 00"
Sunlit
Object was in daylight at epoch
Visualization orbit readout
Latitude
Unknown
Longitude
Unknown
Altitude
Unknown
Speed
Unknown
Apparent Right ascension
Unknown
Apparent Declination
Unknown
Sunlit
N/A
Visualization observer readout
Local Sidereal Time
08:45:09
Azimuth
Unknown
Elevation
Unknown
Doppler factor
Unknown
Orbital elements
Apogee altitude
846.304 km
Perigee altitude
712.538 km
Semi-major axis
7,157.558 km
Eccentricity
0.00934
Inclination
98.8851°
RAAN
104.7624°
Arg. of periapsis
166.8614°
True anomaly
193.25628°
Mean anomaly
193.5035°
Eccentric anomaly
193.37961°
Mean motion
3.58423 °/min
Orbital period
100.44 mins
BSTAR
0.000082503
Loading maneuver chart data...
Computing Atmospheric mass density...

Documentation

Showing up to 5 results
|